Location: ??
(35.5052°N, 139.7262°E)
Time: 18:05:11
(UTC+00:00)

SL-08 R/B - Pass Details

Date: 20 June 2021
Orbit: 674 x 738 km, 98.5° (Epoch: 30 July)

Event Time Altitude Azimuth Distance (km) Brightness Sun altitude
Rises 18:31:56 0° 179° (S) 3,020 6.2 -9.9°
Reaches altitude 10° 18:34:12 10° 185° (S) 2,115 5.4 -9.6°
Maximum altitude 18:38:40 48° 260° (W) 896 3.5 -8.9°
Drops below altitude 10° 18:43:14 10° 335° (NNW) 2,163 6.0 -8.1°
Sets 18:45:36 0° 341° (NNW) 3,095 6.9 -7.7°
